Terug naar catalogus

STARLINK-6131

ActiefCommunicatieVLEO
NORAD 57107·PAYLOAD·🇺🇸 United States

Gelanceerd Jun 23, 2023 vanaf Cape Canaveral Space Force Station

Loading…

Volgende Passages (komende 24 uur)

TLE

VersSource: CelesTrak SupGP

Epoch: Sep 14, 2026, 21:49 UTC

1 57107C 23090G   26257.90951389 -.00003742  00000+0 -13553-3 0  2574
2 57107  43.0007 292.6677 0001787 264.2579 118.7004 15.27576911    19

Volg STARLINK-6131 in realtime met AllMySat

Download on the App Store